G1SCQ Weather Reports


time (UTC)temp
C
wind
direction
speed
KPH
gust
KPH
rain 1hr
cm
rain 24hr
cm
rain mn
cm
humidity
%
barometer
mb
20260508025403 4 0 0.0 0.0 0.00 0.00 0.00 98 1016.7
20260508024504 5 0 0.0 0.0 0.00 0.00 0.00 98 1016.3
20260508023604 4 0 0.0 0.0 0.00 0.00 0.00 98 1016.4
20260508022704 5 0 0.0 0.0 0.00 0.00 0.00 98 1016.5
20260508021803 5 0 0.0 0.0 0.00 0.00 0.00 98 1016.4
20260508020904 4 328 0.0 1.6 0.00 0.00 0.00 97 1016.4
20260508020004 4 315 0.0 1.6 0.00 0.00 0.00 97 1016.7
20260508015404 4 0 0.0 0.0 0.00 0.00 0.00 98 1016.5
20260508014504 4 0 0.0 0.0 0.00 0.00 0.00 97 1016.6
20260508013603 4 0 0.0 0.0 0.00 0.00 0.00 97 1016.6
20260508012703 5 0 0.0 0.0 0.00 0.00 0.00 97 1016.6
20260508011803 5 0 0.0 0.0 0.00 0.00 0.00 97 1016.5
20260508010903 5 0 0.0 0.0 0.00 0.00 0.00 97 1016.4
20260508010004 5 0 0.0 0.0 0.00 0.00 0.00 97 1016.5
20260508005403 5 0 0.0 0.0 0.00 0.00 0.00 96 1016.6
20260508004505 5 0 0.0 0.0 0.00 0.00 0.00 96 1016.7
20260508003603 5 0 0.0 0.0 0.00 0.00 0.00 96 1016.7
20260508002703 5 0 0.0 0.0 0.00 0.00 0.00 96 1016.7
20260508001803 5 0 0.0 0.0 0.00 0.00 0.00 95 1016.6
20260508000903 5 0 0.0 0.0 0.00 0.00 0.00 95 1016.8
20260508000003 6 0 0.0 0.0 0.00 0.00 0.00 94 1016.7
20260507235405 6 0 0.0 0.0 0.00 0.00 0.00 94 1016.9
20260507234503 6 0 0.0 0.0 0.00 0.00 0.00 94 1016.7
20260507233603 6 199 0.0 1.6 0.00 0.00 0.00 93 1017.0
20260507232703 6 228 0.0 1.6 0.00 0.00 0.00 94 1017.1
20260507231803 6 213 0.0 1.6 0.00 0.00 0.00 93 1017.0
20260507230903 6 213 0.0 1.6 0.00 0.00 0.00 93 1017.0
20260507230004 6 244 0.0 1.6 0.00 0.00 0.00 92 1016.8
20260507225403 6 115 0.0 1.6 0.00 0.00 0.00 92 1017.0
20260507224504 6 0 0.0 0.0 0.00 0.00 0.00 91 1017.1
20260507223603 7 88 0.0 1.6 0.00 0.00 0.00 91 1017.1
20260507222703 7 209 0.0 4.8 0.00 0.00 0.00 91 1017.0
20260507221803 7 230 0.0 3.2 0.00 0.00 0.00 90 1016.9
20260507220903 7 220 0.0 1.6 0.00 0.00 0.00 90 1016.9
20260507220003 7 209 0.0 1.6 0.00 0.00 0.00 90 1017.1
20260507215403 7 181 0.0 3.2 0.00 0.00 0.00 89 1017.1
20260507214503 7 276 0.0 1.6 0.00 0.00 0.00 89 1016.8
20260507213603 7 202 0.0 1.6 0.00 0.00 0.00 89 1016.7
20260507212703 7 0 0.0 0.0 0.00 0.00 0.00 88 1016.8
20260507211805 7 201 0.0 1.6 0.00 0.00 0.00 87 1017.1
20260507210905 8 202 0.0 1.6 0.00 0.00 0.00 87 1016.9
20260507210006 8 147 0.0 1.6 0.00 0.00 0.00 86 1016.7
20260507205406 8 196 0.0 3.2 0.00 0.00 0.00 85 1016.9
20260507204506 8 213 0.0 3.2 0.00 0.00 0.00 85 1016.4
20260507203606 8 204 1.6 4.8 0.00 0.00 0.00 84 1016.6
20260507202705 8 208 1.6 3.2 0.00 0.00 0.00 83 1016.4
20260507201806 9 207 1.6 4.8 0.00 0.00 0.00 83 1016.3
20260507200905 9 179 0.0 4.8 0.00 0.00 0.00 82 1016.2
20260507200006 10 202 0.0 3.2 0.00 0.00 0.00 81 1016.1
20260507195406 10 180 1.6 6.4 0.00 0.00 0.00 81 1016.0
20260507194505 10 181 1.6 6.4 0.00 0.00 0.00 80 1016.1
20260507193605 10 163 1.6 6.4 0.00 0.00 0.00 79 1016.1
20260507192705 10 197 1.6 6.4 0.00 0.00 0.00 79 1016.1
20260507191805 10 197 1.6 6.4 0.00 0.00 0.00 78 1016.2
20260507190905 11 184 1.6 6.4 0.00 0.00 0.00 77 1016.1
20260507190006 11 205 3.2 12.9 0.00 0.00 0.00 77 1016.1
20260507185405 11 208 1.6 9.7 0.00 0.00 0.00 77 1015.9
20260507184505 11 202 1.6 9.7 0.00 0.00 0.00 76 1016.0
20260507183605 11 193 1.6 9.7 0.00 0.00 0.00 76 1016.0
20260507182705 11 197 1.6 14.5 0.00 0.00 0.00 75 1015.9
20260507181805 11 171 1.6 14.5 0.00 0.00 0.00 74 1015.8
20260507180905 11 212 1.6 11.3 0.00 0.00 0.00 73 1015.8
20260507180005 12 233 1.6 11.3 0.00 0.00 0.00 72 1015.9
20260507175405 12 190 1.6 9.7 0.00 0.00 0.00 72 1015.7
20260507174505 12 198 1.6 4.8 0.00 0.00 0.00 70 1015.7
20260507173605 12 186 1.6 6.4 0.00 0.00 0.00 70 1015.5
20260507172705 12 188 1.6 9.7 0.00 0.00 0.00 69 1015.6
20260507171805 12 203 3.2 9.7 0.00 0.00 0.00 68 1015.8
20260507170905 12 211 3.2 11.3 0.00 0.00 0.00 63 1015.6
20260507170005 12 210 3.2 6.4 0.00 0.00 0.00 63 1015.7
20260507165405 12 217 1.6 6.4 0.00 0.00 0.00 63 1015.7
20260507164506 13 208 1.6 6.4 0.00 0.00 0.00 62 1015.7
20260507163605 13 181 1.6 4.8 0.00 0.00 0.00 61 1015.6
20260507162705 13 206 1.6 9.7 0.00 0.00 0.00 61 1015.7
20260507161805 13 203 1.6 4.8 0.00 0.00 0.00 60 1015.6
20260507160905 13 204 1.6 9.7 0.00 0.00 0.00 59 1015.8
20260507160005 13 201 0.0 6.4 0.00 0.00 0.00 59 1015.8
20260507155405 13 214 1.6 6.4 0.00 0.00 0.00 58 1015.8
20260507154505 15 178 1.6 3.2 0.00 0.00 0.00 57 1015.8
20260507153605 14 205 1.6 6.4 0.00 0.00 0.00 58 1015.9
20260507152705 14 221 1.6 6.4 0.00 0.00 0.00 59 1015.8
20260507151805 13 197 1.6 4.8 0.00 0.00 0.00 60 1016.0
20260507150905 13 195 1.6 4.8 0.00 0.00 0.00 60 1016.0
20260507150006 13 191 1.6 6.4 0.00 0.00 0.00 63 1015.9
20260507145405 13 194 1.6 4.8 0.00 0.00 0.00 62 1015.9
20260507144505 13 206 0.0 3.2 0.00 0.00 0.00 60 1015.9
20260507143605 13 202 0.0 3.2 0.00 0.00 0.00 60 1015.9
20260507142705 13 209 1.6 3.2 0.00 0.00 0.00 60 1015.9
20260507141805 14 202 1.6 4.8 0.00 0.00 0.00 58 1015.9
20260507140905 14 211 1.6 4.8 0.00 0.00 0.00 59 1016.1
20260507140006 13 205 1.6 3.2 0.00 0.00 0.00 61 1016.1
20260507135405 13 306 0.0 3.2 0.00 0.00 0.00 61 1015.9
20260507134505 13 18 0.0 4.8 0.00 0.00 0.00 62 1016.1
20260507133605 13 6 1.6 6.4 0.00 0.00 0.00 66 1016.0
20260507132705 14 86 1.6 4.8 0.00 0.00 0.00 62 1016.1
20260507131805 15 65 1.6 6.4 0.00 0.00 0.00 66 1016.1
20260507130905 13 357 1.6 9.7 0.00 0.00 0.00 66 1016.2
20260507130005 15 40 1.6 3.2 0.00 0.00 0.00 66 1016.3
20260507125405 13 343 1.6 6.4 0.00 0.00 0.00 67 1016.2
20260507124505 13 344 1.6 9.7 0.00 0.00 0.00 71 1016.4
20260507123605 13 18 1.6 9.7 0.00 0.00 0.00 71 1016.2
20260507122706 13 16 1.6 6.4 0.00 0.00 0.00 69 1016.4
20260507121805 13 335 3.2 9.7 0.00 0.00 0.00 70 1016.4
20260507120904 12 336 3.2 9.7 0.00 0.00 0.00 73 1016.4
20260507120005 12 339 3.2 6.4 0.00 0.00 0.00 72 1016.6
20260507115405 12 332 3.2 11.3 0.00 0.00 0.00 72 1016.6
20260507114504 11 349 3.2 9.7 0.00 0.00 0.00 75 1016.7
20260507113605 11 336 3.2 9.7 0.00 0.00 0.00 75 1016.7
20260507112704 12 333 3.2 9.7 0.00 0.00 0.00 73 1016.6
20260507111804 12 349 3.2 9.7 0.00 0.00 0.00 70 1016.7
20260507110905 12 336 4.8 9.7 0.00 0.00 0.00 72 1016.8
20260507110005 12 334 3.2 6.4 0.00 0.00 0.00 72 1016.6
20260507105404 11 338 3.2 6.4 0.00 0.00 0.00 73 1017.1
20260507104505 11 337 3.2 11.3 0.00 0.00 0.00 73 1016.8
20260507103604 11 352 1.6 6.4 0.00 0.00 0.00 75 1017.0
20260507102705 10 344 3.2 9.7 0.00 0.00 0.00 75 1017.0
20260507101804 11 318 3.2 9.7 0.00 0.00 0.00 74 1017.0
20260507100905 11 308 3.2 6.4 0.00 0.00 0.00 72 1016.9
20260507100005 11 333 3.2 6.4 0.00 0.00 0.00 73 1016.9
20260507095404 10 322 3.2 6.4 0.00 0.00 0.00 75 1016.9
20260507094505 11 342 1.6 4.8 0.00 0.00 0.00 75 1016.8
20260507093604 10 321 1.6 6.4 0.00 0.00 0.00 75 1016.8
20260507092704 10 318 1.6 6.4 0.00 0.00 0.00 75 1016.9
20260507091804 11 295 3.2 9.7 0.00 0.00 0.00 74 1016.9
20260507090904 11 272 1.6 4.8 0.00 0.00 0.00 73 1016.8
20260507090005 10 267 0.0 3.2 0.00 0.00 0.00 74 1016.8
20260507085404 10 265 0.0 3.2 0.00 0.00 0.00 74 1017.0
20260507084504 10 216 1.6 3.2 0.00 0.00 0.00 75 1016.7
20260507083604 11 218 1.6 4.8 0.00 0.00 0.00 73 1016.8
20260507082705 11 213 1.6 4.8 0.00 0.00 0.00 72 1016.9
20260507081804 10 211 1.6 4.8 0.00 0.00 0.00 75 1016.9
20260507080904 10 189 0.0 3.2 0.00 0.00 0.00 75 1016.8
20260507080005 10 322 0.0 1.6 0.00 0.00 0.00 75 1016.8
20260507075405 10 181 0.0 1.6 0.00 0.00 0.00 77 1016.9
20260507074504 9 181 0.0 1.6 0.00 0.00 0.00 80 1016.3
20260507073604 9 187 0.0 4.8 0.00 0.00 0.00 80 1016.4
20260507072704 8 148 0.0 1.6 0.00 0.00 0.00 82 1016.3
20260507071804 8 115 0.0 3.2 0.00 0.00 0.00 82 1016.5
20260507070904 8 211 1.6 3.2 0.00 0.00 0.00 82 1016.4
20260507070008 8 203 1.6 4.8 0.00 0.00 0.00 84 1016.3
20260507065404 8 204 1.6 3.2 0.00 0.00 0.00 85 1016.5
20260507064504 7 192 1.6 4.8 0.00 0.00 0.00 87 1016.5
20260507063604 7 201 0.0 1.6 0.00 0.00 0.00 91 1016.3
20260507062704 6 215 1.6 6.4 0.00 0.00 0.00 97 1016.2
20260507061804 6 224 0.0 3.2 0.00 0.00 0.00 99 1016.5
20260507060904 5 0 0.0 0.0 0.00 0.00 0.00 99 1016.3
20260507060004 5 0 0.0 0.0 0.00 0.00 0.00 99 1016.4
20260507055404 5 0 0.0 0.0 0.00 0.00 0.00 99 1016.4
20260507054504 5 0 0.0 0.0 0.00 0.00 0.00 98 1016.0
20260507053604 5 0 0.0 0.0 0.00 0.00 0.00 99 1016.2
20260507052704 5 0 0.0 0.0 0.00 0.00 0.00 98 1016.2
20260507051804 4 0 0.0 0.0 0.00 0.00 0.00 99 1016.0
20260507050904 3 0 0.0 0.0 0.00 0.00 0.00 98 1016.0
20260507050005 3 0 0.0 0.0 0.00 0.00 0.00 98 1015.9
20260507045404 3 0 0.0 0.0 0.00 0.00 0.00 98 1015.9
20260507044504 3 0 0.0 0.0 0.00 0.00 0.00 98 1015.9
20260507043604 3 0 0.0 0.0 0.00 0.00 0.00 98 1015.9
20260507042704 3 0 0.0 0.0 0.00 0.00 0.00 98 1015.9
20260507041804 4 0 0.0 0.0 0.00 0.00 0.00 98 1015.9
20260507040904 4 0 0.0 0.0 0.00 0.00 0.00 98 1015.8
20260507040004 4 0 0.0 0.0 0.00 0.00 0.00 97 1015.7
20260507035404 4 0 0.0 0.0 0.00 0.00 0.00 97 1015.6
20260507034504 4 0 0.0 0.0 0.00 0.00 0.00 97 1015.7
20260507033604 5 0 0.0 0.0 0.00 0.00 0.00 97 1015.6
20260507032704 5 0 0.0 0.0 0.00 0.00 0.00 97 1015.6
20260507031803 5 0 0.0 0.0 0.00 0.00 0.00 97 1015.6
20260507030904 5 0 0.0 0.0 0.00 0.00 0.00 96 1015.6
20260507030004 5 0 0.0 0.0 0.00 0.00 0.00 96 1015.6